Tracking 28790 objects as of 19-Apr-2024
HD Live streaming from Space Station
objects crossing your sky now

OPS 6073 (DMSP 4A F2)

Track OPS 6073 (DMSP 4A F2) now!
10-day predictions
OPS 6073 (DMSP 4A F2) is classified as:


NORAD ID: 2669
Int'l Code: 1967-010A
Perigee: 771.2 km
Apogee: 842.9 km
Inclination: 99.0 °
Period: 100.9 minutes
Semi major axis: 7178 km
RCS: 0.6644 m2 (medium)
Launch date: February 8, 1967
Source: United States (US)
Launch site: AIR FORCE WESTERN TEST RANGE (AFWTR)
Your satellite tracking list
Your tracking list is empty




NASA's NSSDC Master Catalog

Two Line Element Set (TLE):
1 02669U 67010A   24109.84177119  .00000573  00000-0  24863-3 0  9992
2 02669  99.0271  71.1005 0049937 140.1305 220.3560 14.27562553971671
Source of the keplerian elements: AFSPC